KF5JED-13 Weather Reports


time (UTC)temp
F
wind
direction
speed
knots
gust
knots
rain 1hr
in
rain 24hr
in
rain mn
in
humidity
%
barometer
mb
20260503055003 50 212 2.6 3.5 0.00 0.00 0.00 47 1020.1
20260503054458 50 184 3.5 4.3 0.00 0.00 0.00 46 1020.1
20260503053956 51 177 2.6 2.6 0.00 0.00 0.00 45 1020.0
20260503053454 51 183 1.7 2.6 0.00 0.00 0.00 46 1020.2
20260503052950 50 177 1.7 3.5 0.00 0.00 0.00 46 1020.1
20260503052448 51 180 2.6 3.5 0.00 0.00 0.00 45 1020.0
20260503051944 52 180 2.6 3.5 0.00 0.00 0.00 43 1020.1
20260503051440 53 192 1.7 2.6 0.00 0.00 0.00 42 1020.2
20260503050938 53 187 2.6 3.5 0.00 0.00 0.00 43 1020.0
20260503050433 53 192 3.5 4.3 0.00 0.00 0.00 42 1020.1
20260503045931 53 193 0.9 3.5 0.00 0.00 0.00 41 1020.0
20260503045429 53 196 2.6 2.6 0.00 0.00 0.00 41 1020.0
20260503044925 53 208 2.6 3.5 0.00 0.00 0.00 41 1020.0
20260503044422 53 205 2.6 3.5 0.00 0.00 0.00 40 1020.1
20260503043920 53 177 0.9 1.7 0.00 0.00 0.00 41 1020.1
20260503043416 53 184 3.5 3.5 0.00 0.00 0.00 40 1020.0
20260503042912 53 186 1.7 2.6 0.00 0.00 0.00 41 1019.9
20260503042409 51 173 0.9 3.5 0.00 0.00 0.00 41 1020.1
20260503041905 49 150 1.7 2.6 0.00 0.00 0.00 42 1020.0
20260503041402 49 159 1.7 2.6 0.00 0.00 0.00 42 1020.0
20260503040900 49 167 1.7 2.6 0.00 0.00 0.00 42 1020.0
20260503040357 47 142 1.7 2.6 0.00 0.00 0.00 43 1020.1
20260503035854 48 146 2.6 2.6 0.00 0.00 0.00 41 1020.1
20260503035351 49 144 2.6 2.6 0.00 0.00 0.00 41 1019.9
20260503034848 48 162 1.7 2.6 0.00 0.00 0.00 41 1020.1
20260503034346 48 153 2.6 2.6 0.00 0.00 0.00 41 1020.1
20260503033843 49 142 1.7 2.6 0.00 0.00 0.00 40 1020.1
20260503033340 49 161 2.6 2.6 0.00 0.00 0.00 40 1020.0
20260503032838 49 136 1.7 2.6 0.00 0.00 0.00 38 1020.0
20260503032337 50 152 2.6 2.6 0.00 0.00 0.00 38 1020.0
20260503031834 51 141 1.7 2.6 0.00 0.00 0.00 36 1019.9
20260503031332 53 145 1.7 1.7 0.00 0.00 0.00 35 1019.9
20260503030828 54 139 1.7 2.6 0.00 0.00 0.00 35 1019.9
20260503030324 55 159 1.7 1.7 0.00 0.00 0.00 34 1019.8
20260503025821 55 154 0.9 1.7 0.00 0.00 0.00 34 1019.7
20260503025319 55 148 1.7 2.6 0.00 0.00 0.00 33 1019.7
20260503024815 56 153 2.6 2.6 0.00 0.00 0.00 32 1019.7
20260503024312 57 145 1.7 2.6 0.00 0.00 0.00 32 1019.8
20260503023809 57 133 1.7 1.7 0.00 0.00 0.00 32 1019.7
20260503023307 58 143 2.6 2.6 0.00 0.00 0.00 31 1019.7
20260503022803 57 136 1.7 1.7 0.00 0.00 0.00 31 1019.5
20260503022304 58 138 1.7 2.6 0.00 0.00 0.00 32 1019.7
20260503021759 58 134 1.7 2.6 0.00 0.00 0.00 30 1019.6
20260503021255 61 149 2.6 4.3 0.00 0.00 0.00 29 1019.5
20260503020753 62 132 1.7 1.7 0.00 0.00 0.00 29 1019.5
20260503020251 62 134 1.7 1.7 0.00 0.00 0.00 29 1019.6
20260503015747 62 149 1.7 1.7 0.00 0.00 0.00 28 1019.2
20260503015244 63 137 1.7 1.7 0.00 0.00 0.00 28 1019.5
20260503014740 64 181 0.0 1.7 0.00 0.00 0.00 27 1019.1
20260503014238 63 208 0.9 1.7 0.00 0.00 0.00 28 1019.4
20260503013735 63 198 0.0 1.7 0.00 0.00 0.00 28 1019.1
20260503013233 63 195 1.7 3.5 0.00 0.00 0.00 27 1019.1
20260503012730 64 180 1.7 2.6 0.00 0.00 0.00 27 1019.2
20260503012227 65 187 2.6 3.5 0.00 0.00 0.00 26 1018.8
20260503011724 66 198 2.6 3.5 0.00 0.00 0.00 25 1019.0
20260503011221 67 204 3.5 6.1 0.00 0.00 0.00 24 1019.0
20260503010717 68 200 5.2 7.0 0.00 0.00 0.00 24 1019.0
20260503010214 68 163 1.7 3.5 0.00 0.00 0.00 24 1018.9
20260503005711 69 201 3.5 5.2 0.00 0.00 0.00 23 1019.1
20260503005209 70 204 2.6 4.3 0.00 0.00 0.00 22 1018.9
20260503004704 71 176 2.6 4.3 0.00 0.00 0.00 22 1018.8
20260503004203 71 195 3.5 5.2 0.00 0.00 0.00 21 1018.8
20260503003659 71 145 1.7 3.5 0.00 0.00 0.00 22 1018.8
20260503003156 72 161 5.2 6.1 0.00 0.00 0.00 21 1018.8
20260503002653 72 168 5.2 6.1 0.00 0.00 0.00 21 1018.9
20260503002150 72 203 7.0 7.8 0.00 0.00 0.00 22 1018.8
20260503001646 71 202 4.3 7.8 0.00 0.00 0.00 22 1018.7
20260503001143 73 214 5.2 6.1 0.00 0.00 0.00 21 1018.8
20260503000641 74 226 2.6 5.2 0.00 0.00 0.00 20 1019.0
20260503000138 73 273 1.7 3.5 0.00 0.00 0.00 20 1018.9
20260502235634 73 236 2.6 4.3 0.00 0.00 0.00 20 1019.0
20260502235133 74 348 1.7 3.5 0.00 0.00 0.00 20 1018.8
20260502234628 71 236 2.6 4.3 0.00 0.00 0.00 21 1019.0
20260502234126 71 202 3.5 5.2 0.00 0.00 0.00 21 1018.9
20260502233621 73 39 1.7 3.5 0.00 0.00 0.00 20 1018.8
20260502233118 73 153 7.8 9.6 0.00 0.00 0.00 21 1019.0
20260502232614 73 173 7.0 8.7 0.00 0.00 0.00 21 1018.9
20260502232112 73 185 6.1 8.7 0.00 0.00 0.00 21 1018.9
20260502231608 72 160 6.1 9.6 0.00 0.00 0.00 22 1018.9
20260502231107 71 193 3.5 7.8 0.00 0.00 0.00 22 1018.9
20260502230604 71 231 5.2 6.1 0.00 0.00 0.00 21 1018.9
20260502225558 74 327 0.9 4.3 0.00 0.00 0.00 20 1019.0
20260502225055 74 327 4.3 8.7 0.00 0.00 0.00 20 1018.9
20260502224551 73 217 7.0 7.8 0.00 0.00 0.00 21 1019.1
20260502224048 74 351 3.5 8.7 0.00 0.00 0.00 20 1019.0
20260502223546 74 66 3.5 6.1 0.00 0.00 0.00 21 1019.1
20260502223044 74 356 2.6 5.2 0.00 0.00 0.00 20 1019.0
20260502222541 73 36 2.6 7.0 0.00 0.00 0.00 21 1019.1
20260502222037 74 302 2.6 6.1 0.00 0.00 0.00 21 1019.2
20260502221533 73 324 6.1 7.0 0.00 0.00 0.00 21 1019.2
20260502221031 74 314 9.6 9.6 0.00 0.00 0.00 21 1019.2
20260502220526 75 312 6.1 7.0 0.00 0.00 0.00 20 1019.4
20260502220024 73 51 6.1 7.8 0.00 0.00 0.00 22 1019.4
20260502215521 70 358 6.1 7.0 0.00 0.00 0.00 22 1019.5
20260502215017 71 359 3.5 7.8 0.00 0.00 0.00 21 1019.2
20260502214515 74 326 6.1 7.0 0.00 0.00 0.00 20 1019.6
20260502214012 73 327 2.6 6.1 0.00 0.00 0.00 21 1019.7
20260502213508 72 315 5.2 10.4 0.00 0.00 0.00 21 1019.6
20260502213007 73 315 5.2 6.1 0.00 0.00 0.00 20 1019.9
20260502212505 73 228 1.7 6.1 0.00 0.00 0.00 21 1019.8
20260502212002 72 212 7.0 10.4 0.00 0.00 0.00 21 1019.8
20260502211457 72 258 4.3 6.1 0.00 0.00 0.00 22 1019.9
20260502210955 72 219 8.7 10.4 0.00 0.00 0.00 21 1020.1
20260502210452 72 224 4.3 8.7 0.00 0.00 0.00 23 1020.2
20260502205949 73 204 5.2 9.6 0.00 0.00 0.00 21 1020.1
20260502205445 73 115 1.7 4.3 0.00 0.00 0.00 21 1020.0
20260502204942 72 258 1.7 5.2 0.00 0.00 0.00 21 1020.2
20260502204439 70 257 3.5 4.3 0.00 0.00 0.00 23 1020.5
20260502203937 70 211 7.8 13.0 0.00 0.00 0.00 23 1020.2
20260502203434 73 235 6.1 10.4 0.00 0.00 0.00 22 1020.6
20260502202930 74 284 2.6 8.7 0.00 0.00 0.00 22 1020.5
20260502202427 71 172 0.9 5.2 0.00 0.00 0.00 22 1020.4
20260502201925 71 232 7.8 12.2 0.00 0.00 0.00 22 1020.6
20260502201421 72 216 5.2 6.1 0.00 0.00 0.00 22 1020.6
20260502200918 73 154 6.1 7.8 0.00 0.00 0.00 21 1020.7
20260502200414 72 150 6.1 9.6 0.00 0.00 0.00 21 1020.6
20260502195912 71 249 3.5 9.6 0.00 0.00 0.00 23 1020.6
20260502195408 72 202 13.0 18.2 0.00 0.00 0.00 22 1020.7
20260502194905 70 201 7.0 8.7 0.00 0.00 0.00 22 1020.7
20260502194402 72 245 5.2 10.4 0.00 0.00 0.00 23 1020.7
20260502193857 71 189 5.2 7.8 0.00 0.00 0.00 22 1020.9
20260502193355 71 228 2.6 4.3 0.00 0.00 0.00 23 1020.7
20260502192850 70 262 0.9 5.2 0.00 0.00 0.00 23 1021.0
20260502192347 71 313 4.3 5.2 0.00 0.00 0.00 23 1021.1
20260502191844 71 225 2.6 4.3 0.00 0.00 0.00 23 1021.2
20260502191343 71 66 4.3 5.2 0.00 0.00 0.00 23 1021.0
20260502190839 71 20 4.3 5.2 0.00 0.00 0.00 23 1021.4
20260502190337 69 163 2.6 7.8 0.00 0.00 0.00 24 1021.2
20260502185832 69 223 1.7 11.3 0.00 0.00 0.00 24 1021.2
20260502185328 69 285 4.3 7.0 0.00 0.00 0.00 24 1021.4
20260502184826 69 214 3.5 11.3 0.00 0.00 0.00 25 1021.2
20260502184321 69 213 2.6 7.8 0.00 0.00 0.00 26 1021.5
20260502183818 70 99 5.2 6.1 0.00 0.00 0.00 24 1021.4
20260502183314 71 97 1.7 7.0 0.00 0.00 0.00 24 1021.6
20260502182809 71 148 3.5 4.3 0.00 0.00 0.00 23 1021.6
20260502182305 71 69 2.6 6.1 0.00 0.00 0.00 26 1021.7
20260502181802 70 174 3.5 7.8 0.00 0.00 0.00 24 1021.7
20260502181301 68 121 5.2 8.7 0.00 0.00 0.00 26 1021.8
20260502180758 69 201 3.5 12.2 0.00 0.00 0.00 25 1021.9
20260502180255 68 126 4.3 7.8 0.00 0.00 0.00 27 1021.9
20260502170208 67 350 6.1 8.7 0.00 0.00 0.00 33 1022.5
20260502164149 64 275 4.3 8.7 0.00 0.00 0.00 41 1022.7
20260502163644 65 318 7.0 7.8 0.00 0.00 0.00 38 1022.4
20260502163141 64 359 7.0 9.6 0.00 0.00 0.00 41 1022.7
20260502162638 63 312 6.1 10.4 0.00 0.00 0.00 42 1022.5
20260502162136 64 346 6.1 7.0 0.00 0.00 0.00 42 1022.6
20260502161633 64 310 7.0 8.7 0.00 0.00 0.00 43 1022.7
20260502161129 62 316 5.2 5.2 0.00 0.00 0.00 45 1022.8
20260502160627 62 339 7.0 13.9 0.00 0.00 0.00 45 1022.7
20260502160126 62 313 5.2 10.4 0.00 0.00 0.00 44 1022.6
20260502152040 58 314 9.6 13.9 0.00 0.00 0.00 54 1022.6
20260502151537 58 310 5.2 13.0 0.00 0.00 0.00 55 1022.8
20260502151034 58 241 4.3 7.0 0.00 0.00 0.00 57 1022.8
20260502150532 56 293 8.7 14.8 0.00 0.00 0.00 59 1022.8
20260502130411 42 244 3.5 5.2 0.00 0.00 0.00 88 1022.5
20260502123353 39 179 1.7 4.3 0.00 0.00 0.00 92 1022.0
20260502122850 38 203 1.7 5.2 0.00 0.00 0.00 92 1021.7
20260502122346 38 177 1.7 5.2 0.00 0.00 0.00 93 1022.0
20260502121845 38 223 2.6 5.2 0.00 0.00 0.00 93 1021.9
20260502121342 36 200 1.7 3.5 0.00 0.00 0.00 92 1021.8
20260502120839 34 169 2.6 4.3 0.00 0.00 0.00 92 1021.7
20260502120335 36 183 3.5 4.3 0.00 0.00 0.00 92 1021.6
20260502115833 36 158 0.9 3.5 0.00 0.00 0.00 91 1021.5
20260502115330 36 174 3.5 4.3 0.00 0.00 0.00 91 1021.7
20260502114826 38 184 2.6 3.5 0.00 0.00 0.00 92 1021.6
20260502114323 38 217 2.6 5.2 0.00 0.00 0.00 92 1021.5
20260502113820 36 219 4.3 5.2 0.00 0.00 0.00 91 1021.6
20260502113318 36 181 3.5 5.2 0.00 0.00 0.00 90 1021.7
20260502112816 38 213 3.5 5.2 0.00 0.00 0.00 91 1021.6
20260502112313 37 173 1.7 4.3 0.00 0.00 0.00 90 1021.8
20260502111810 37 180 3.5 5.2 0.00 0.00 0.00 89 1021.9
20260502111308 41 227 5.2 7.0 0.00 0.00 0.00 90 1021.6
20260502110805 40 235 4.3 5.2 0.00 0.00 0.00 91 1021.8
20260502110303 40 190 2.6 5.2 0.00 0.00 0.00 91 1021.7
20260502105800 40 180 1.7 4.3 0.02 0.00 0.00 91 1021.8
20260502105256 40 265 1.7 5.2 0.02 0.00 0.00 92 1021.7
20260502104755 39 268 1.7 4.3 0.00 0.00 0.00 92 1021.8
20260502104251 39 321 1.7 7.0 0.00 0.00 0.00 92 1021.8
20260502103749 39 305 3.5 3.5 0.00 0.00 0.00 92 1021.8
20260502103246 38 210 1.7 5.2 0.00 0.00 0.00 92 1021.9
20260502102743 38 235 1.7 5.2 0.00 0.00 0.00 92 1021.8
20260502102239 36 221 1.7 3.5 0.00 0.00 0.00 91 1021.9
20260502101738 35 150 2.6 3.5 0.00 0.00 0.00 91 1022.0
20260502101236 37 167 0.9 3.5 0.00 0.00 0.00 90 1021.8
20260502100733 38 183 2.6 5.2 0.00 0.00 0.00 91 1021.7
20260502100232 39 222 4.3 5.2 0.00 0.00 0.00 91 1021.6
20260502091205 35 156 0.9 1.7 0.00 0.00 0.00 92 1021.5
20260502090703 36 153 1.7 2.6 0.00 0.00 0.00 92 1021.6
20260502090200 36 166 2.6 3.5 0.00 0.00 0.00 92 1021.5
20260502071050 38 145 3.5 3.5 0.00 0.00 0.00 87 1022.1
20260502070548 38 140 2.6 3.5 0.00 0.00 0.00 87 1022.1
20260502070045 39 168 2.6 3.5 0.00 0.00 0.00 87 1022.0
20260502065543 39 165 1.7 3.5 0.00 0.00 0.00 86 1022.1
20260502065035 39 154 2.6 3.5 0.00 0.00 0.00 86 1022.0